Location: Nakusp
(50.2330°N, 117.8000°W)
Time: 03:32:18
(UTC-07:00)

Daily predictions for brighter satellites

Satellite Brightness Start Highest point End
(mag) Time Altitude Azimuth Time Altitude Azimuth Time Altitude Azimuth
SL-8 R/B 3.7 00:00:03 10° W 00:04:47 59° SSW 00:05:59 45° SE
Cosmos 1302 Rocket 4.2 00:04:21 25° SW 00:07:26 71° WNW 00:12:45 10° NNE
Cosmos 2285 Rocket 4.0 00:04:24 33° S 00:07:27 73° ESE 00:13:52 10° NNE
CZ-4C R/B 3.0 00:08:03 66° S 00:08:33 88° W 00:12:17 10° NNW
Cosmos 1455 Rocket 3.1 00:08:13 50° SE 00:09:05 62° E 00:13:23 10° NNE
ALOS 2 2.5 00:08:39 50° SSE 00:09:47 85° ENE 00:14:12 10° NNW
Cosmos 2123 Rocket 4.2 00:05:57 10° NNW 00:12:10 66° W 00:15:04 33° SSW
Meteor 2-16 Rocket 4.4 00:09:27 32° SSW 00:12:29 82° W 00:18:38 10° N
Cosmos 1934 Rocket 4.0 00:09:24 30° SSW 00:12:33 74° W 00:18:38 10° N
Terra 4.1 00:10:08 10° WSW 00:12:51 15° W 00:15:39 10° NW
Okean 2 3.6 00:10:29 10° NNW 00:14:38 63° W 00:15:29 49° SSW
Cosmos 1315 Rocket 2.7 00:14:36 58° SSW 00:15:19 79° WNW 00:19:17 10° N
Genesis I 3.2 00:18:17 48° SW 00:19:20 85° NW 00:23:23 10° NE
Lacrosse 5 rocket 0.9 00:19:38 77° SSE 00:19:43 77° SE 00:23:25 10° ENE
Meteor 2-4 Rocket 4.2 00:15:48 10° NNW 00:20:59 47° W 00:23:10 31° SSW
Cosmos 375 4.1 00:17:40 10° NW 00:21:57 81° SW 00:22:28 65° SSE
Cosmos 2263 4.2 00:30:26 41° S 00:32:20 68° ESE 00:37:59 10° NNE
Meteor 1-12 Rocket 4.4 00:30:51 40° SSE 00:32:44 61° E 00:38:19 10° NNE
Cosmos 1346 Rocket 2.6 00:30:24 10° NNW 00:34:19 76° W 00:34:42 68° SSW
CZ-4B R/B 1.8 00:38:29 52° WNW 00:38:29 52° WNW 00:41:17 10° NNW
Lacrosse 5 1.7 00:35:50 29° SW 00:38:26 82° SE 00:43:34 10° ENE
Cosmos 1544 Rocket 4.1 00:37:34 37° SW 00:38:50 50° WNW 00:43:05 10° N
Helios 1A Rocket 3.4 00:34:57 10° NNE 00:38:59 45° E 00:39:24 44° ESE
CRYOSAT 2 4.4 00:34:23 10° N 00:39:17 71° E 00:40:36 47° SSE
BREEZE-M DEB (TANK) 3.0 00:36:32 10° W 00:39:39 58° SSW 00:49:24 10° ESE
SeaSat 1 3.8 00:41:00 13° ESE 00:44:52 35° NE 00:49:20 10° NNW
Cosmos 44 Rocket 3.3 00:41:39 10° NW 00:46:50 88° WSW 00:48:33 43° SE
Cosmos 1833 4.2 00:44:24 10° NNW 00:49:59 66° WSW 00:51:44 43° S
Landsat 5 3.8 00:50:00 49° SW 00:50:40 55° W 00:54:50 10° NNW
GP-B 3.0 00:49:29 10° N 00:53:58 85° E 00:54:52 57° S
H-2A R/B 2.9 00:55:32 10° N 01:00:03 63° WNW 01:01:22 42° SW
Cosmos 968 Rocket 3.4 00:56:11 10° NNW 01:01:27 76° WSW 01:02:58 47° S
CZ-2C R/B 2.9 01:02:04 43° SSE 01:03:43 78° ENE 01:08:34 10° NNW
Cosmos 1743 3.5 01:03:53 38° ESE 01:04:12 38° E 01:07:50 10° NNE
Cosmos 1340 4.1 01:01:16 10° N 01:04:40 30° ENE 01:05:46 25° E
Cosmos 1975 2.8 01:06:02 59° SW 01:06:37 71° W 01:10:43 10° N
Cosmos 1953 Rocket 3.9 01:04:11 10° N 01:08:28 55° ENE 01:09:35 42° SE
SL-24 DEB 4.4 01:03:43 10° N 01:08:30 67° E 01:09:46 47° SSE
Cosmos 2369 Rocket 2.8 01:05:44 23° WSW 01:09:08 53° NW 01:14:39 10° NNE
CZ-2C R/B 2.5 01:07:55 10° NNE 01:13:11 81° ESE 01:14:55 44° S
Cosmos 1689 Rocket 4.2 01:15:58 20° W 01:15:58 20° W 01:17:58 10° NW
Cosmos 2219 3.1 01:11:00 10° NNW 01:16:40 77° WSW 01:18:42 41° SSE
Cosmos 1825 Rocket 3.5 01:14:21 10° N 01:18:51 88° WSW 01:19:49 55° S
Cosmos 1066 Rocket 4.1 01:13:38 10° NNW 01:18:58 67° W 01:20:38 43° SSW
Cosmos 1842 4.2 01:15:14 10° N 01:19:04 42° ENE 01:20:06 35° ESE
Cosmos 2227 Rocket 3.3 01:13:47 10° NNW 01:19:10 41° NE 01:24:32 10° ESE
Cosmos 1726 Rocket 4.2 01:20:09 38° SE 01:21:02 44° E 01:25:09 10° NNE
Cosmos 44 3.3 01:16:46 10° NW 01:22:06 88° NE 01:24:17 35° SE
Cosmos 2100 Rocket 4.2 01:22:11 34° SSW 01:25:02 68° WNW 01:31:25 10° N
BREEZE-M R/B 4.4 01:15:07 10° WNW 01:25:06 78° SSW 01:30:52 10° ESE
ATLAS 2AS CENTAUR R/B 3.4 01:22:44 10° NW 01:30:25 48° WSW 01:33:30 33° SSW
Cosmos 1818 3.6 01:27:59 34° SW 01:30:28 80° NW 01:36:00 10° NE
Cosmos 1666 3.7 01:30:40 33° ESE 01:31:13 35° E 01:34:40 10° NNE
Cosmos 1758 Rocket 3.6 01:27:50 10° N 01:32:22 81° ENE 01:33:33 49° SSE
Cosmos 1656 Rocket 3.8 01:33:08 40° S 01:35:04 64° ESE 01:40:38 10° NE
ISS -1.7 01:33:32 10° WNW 01:41:16 - ESE 01:35:07 26° WNW
USA 234 3.7 01:31:35 10° ENE 01:38:01 61° NNW 01:44:26 10° W
Cosmos 1500 3.6 01:38:24 45° WSW 01:38:55 49° WNW 01:42:38 10° N
Cosmos 2098 Rocket 4.4 01:35:45 33° S 01:39:15 77° E 01:46:56 10° NNE
Cosmos 2233 Rocket 4.5 01:36:46 28° SSE 01:39:43 51° E 01:45:38 10° NNE
Cosmos 2297 Rocket 3.3 01:35:07 10° NNW 01:40:31 43° NE 01:45:53 10° ESE
Cosmos 1459 Rocket 4.3 01:38:19 31° SW 01:41:04 55° WNW 01:47:02 10° N
Cosmos 2061 Rocket 4.4 01:38:08 31° SW 01:41:10 58° WNW 01:47:30 10° N
Cosmos 2016 Rocket 4.0 01:40:46 36° SSW 01:43:24 71° WNW 01:49:31 10° N
Cosmos 1943 Rocket 2.4 01:41:39 30° SW 01:44:21 63° NW 01:49:57 10° NNE
Cosmos 1777 Rocket 4.2 01:39:37 10° NNW 01:44:43 55° WSW 01:46:06 42° SSW
Cosmos 1802 Rocket 4.4 01:48:54 30° SW 01:51:48 54° WNW 01:58:00 10° N
Cosmos 2208 Rocket 4.3 01:50:42 36° SSE 01:52:30 54° ESE 01:57:38 10° NNE
BREEZE-M DEB (TANK) 2.9 01:48:55 10° WNW 01:57:46 56° SSW 01:58:52 40° SSE
Lacrosse 5 rocket 2.7 01:55:47 10° W 01:59:13 34° NNW 02:02:35 10° NE
Cosmos 2228 3.1 02:05:51 43° SSE 02:07:10 70° E 02:11:27 10° NNE
Uosat 12 SS-18 rocket 4.4 02:05:59 10° NW 02:10:26 54° SW 02:12:06 37° S
USA 161 4.4 02:12:04 10° E 02:13:28 13° ENE 02:14:52 10° NE
Cosmos 1725 Rocket 4.2 02:16:53 30° SW 02:19:54 58° WNW 02:26:01 10° N
Lacrosse 5 3.0 02:16:54 10° W 02:21:47 44° NNW 02:26:41 10° ENE
GENESIS II 4.4 02:21:10 45° S 02:22:12 62° SE 02:26:19 10° NE
SeaSat 1 2.7 02:20:47 36° SSW 02:22:18 48° WSW 02:27:05 10° NW
Cosmos 1606 Rocket 4.3 02:21:26 31° WSW 02:22:46 39° WNW 02:26:53 10° N
Cosmos 1707 3.6 02:24:42 10° N 02:28:32 47° ENE 02:30:56 21° SE
CZ-2D R/B 4.2 02:31:05 10° NE 02:35:03 20° E 02:38:58 10° SE
Cosmos 2150 Rocket 3.9 02:31:02 10° NNW 02:36:19 84° WSW 02:40:01 20° SSE
Cosmos 1340 4.0 02:37:10 10° NW 02:40:19 25° W 02:40:38 24° W
AQUA 4.3 02:36:03 10° NNE 02:40:44 54° E 02:43:28 24° S
PSLV R/B 3.8 02:36:27 10° N 02:40:50 64° WNW 02:42:48 32° SW
Cosmos 1812 Rocket 3.7 02:40:15 30° S 02:42:23 74° E 02:46:52 10° NNE
Cosmos 2058 Rocket 3.9 02:42:19 27° WSW 02:44:00 38° WNW 02:48:11 10° N
Cosmos 1898 Rocket 3.5 02:38:41 10° NNW 02:44:02 73° WSW 02:47:47 20° SSE
Cosmos 1570 Rocket 4.4 02:45:47 26° SW 02:48:42 54° WNW 02:53:58 10° NNE
SL-16 R/B 3.2 02:44:12 10° SE 02:50:10 54° ENE 02:56:10 10° N
IRS-P3 4.1 02:46:49 10° NNE 02:52:13 89° WNW 02:55:23 26° SSW
CZ-2C R/B 4.5 02:49:17 10° NNW 02:52:54 19° NW 02:56:26 10° W
Cosmos 2082 3.9 02:47:42 10° NW 02:53:10 52° WSW 02:56:38 22° S
Cosmos 972 Rocket 4.5 02:48:52 10° NW 02:53:28 40° WSW 02:55:34 27° SSW
NOSS 3-4 (A) 3.7 02:46:54 10° NW 02:53:46 74° SW 03:01:04 10° SSE
NOSS 3-4 (C) 3.7 02:47:00 10° NW 02:53:54 74° SW 03:01:14 10° SSE
Cosmos 1697 Rocket 4.0 02:50:22 14° SSE 02:54:24 32° ESE 02:59:23 10° NE
Cosmos 1937 Rocket 3.4 02:50:04 10° NNW 02:55:16 80° WSW 02:59:50 13° SSE
Cosmos 1980 Rocket 3.9 02:58:39 10° SSE 03:03:04 24° ESE 03:07:31 10° NE
GEOS 3 Rocket 3.7 02:58:03 10° SE 03:03:15 78° NE 03:08:26 10° NW
Cosmos 2227 Rocket 2.6 02:57:58 10° NW 03:03:16 42° WSW 03:06:27 22° SSW
ATLAS CENTAUR R/B 2.5 03:00:50 23° S 03:03:40 46° ESE 03:08:25 10° NE
NOSS 3-3 (A) 4.4 02:59:42 17° WSW 03:04:40 62° NW 03:11:36 10° NE
NOSS 3-3 (C) 4.4 02:59:48 18° WSW 03:04:45 63° NW 03:11:41 10° NE
Cosmos 1666 4.4 03:05:40 18° W 03:07:02 21° WNW 03:10:01 10° NNW
ARIANE 5 R/B 3.4 03:05:46 10° NNE 03:10:43 45° E 03:15:18 12° S
ISS -2.0 03:14:22 23° SSE 03:14:22 23° SSE 03:16:02 10° SSE
Meteor 2-5 Rocket 4.0 03:07:43 10° NNW 03:13:27 56° W 03:17:43 18° SSW
Cosmos 1461 4.1 03:09:55 10° NNW 03:14:01 45° NE 03:17:56 10° ESE
Resurs 1-4 Rocket 3.2 03:09:32 10° NNE 03:14:29 39° E 03:19:23 10° SSE
SL-08 R/B 3.8 03:12:20 24° SSW 03:14:39 41° W 03:19:04 10° NNW
ADEOS 3.7 03:09:29 10° NNE 03:14:44 74° ESE 03:18:43 18° S
Okean 3 Rocket 3.6 03:10:59 10° NNW 03:15:22 63° W 03:18:16 20° S
USA 234 4.2 03:14:16 10° ENE 03:20:33 50° N 03:26:48 10° WNW
Cosmos 405 Rocket 3.6 03:19:37 10° NNW 03:23:22 35° W 03:25:10 23° SW
Cosmos 1464 Rocket 4.2 03:18:59 20° SSW 03:23:31 64° WNW 03:29:51 10° N
Cosmos 2297 Rocket 2.7 03:19:19 10° NW 03:24:33 40° WSW 03:28:44 15° S
NPP 3.9 03:19:15 10° N 03:24:33 59° WNW 03:28:20 19° SW
Cosmos 2278 3.9 03:22:42 20° SW 03:26:40 66° WNW 03:32:22 10° NNE
Cosmos 1378 3.1 03:24:15 10° N 03:28:05 90° SSW 03:31:34 12° S
Cosmos 2369 3.8 03:24:20 20° SW 03:28:21 71° WNW 03:34:04 10° NNE
UNK 3.8 03:23:59 10° SSE 03:28:40 84° ENE 03:33:22 10° NNW
Spot 4 Rocket 4.1 03:23:54 10° NNE 03:29:07 86° ESE 03:33:21 16° SSW
Cosmos 1943 Rocket 4.4 03:25:35 10° WNW 03:29:17 18° NNW 03:33:02 10° N
Cosmos 1092 Rocket 4.1 03:26:55 10° N 03:33:15 87° E 03:39:35 10° S
Cosmos 1766 3.3 03:33:18 16° S 03:36:27 79° E 03:40:24 10° NNE
CBERS-1 4.4 03:31:31 10° N 03:36:31 53° WNW 03:40:19 17° SW
IRS-1D 3.6 03:34:10 10° NNE 03:39:08 71° ESE 03:43:53 11° S
Lacrosse 5 rocket 3.1 03:35:53 10° NW 03:39:08 29° N 03:42:23 10° ENE
Cosmos 1076 Rocket 3.5 03:35:08 10° NNW 03:39:29 72° W 03:43:46 10° S
ERS-2 2.4 03:37:13 10° N 03:40:55 58° WNW 03:43:28 19° SW
Cosmos 1814 Rocket 4.1 03:36:54 18° SSW 03:40:59 73° WNW 03:46:23 10° NNE
USA 161 2.2 03:42:19 23° SSW 03:43:35 34° W 03:46:11 10° NNW
UNKNOWN OBJECT B 3.7 03:42:46 10° NNE 03:46:35 45° E 03:50:16 10° S
SL-16 R/B 4.3 03:44:19 10° SSE 03:48:28 21° E 03:52:38 10° NE
Abrixas 3.5 03:48:10 17° WSW 03:49:47 26° SSW 03:52:25 10° SE
Cosmos 1743 Rocket 3.8 03:46:22 10° N 03:50:42 70° ENE 03:55:03 10° SSE
Meteor 1-24 Rocket 4.2 03:49:43 10° NNW 03:55:05 44° W 04:00:36 10° SSW
Cosmos 2263 Rocket 3.7 03:52:08 10° NNW 03:57:25 40° NE 04:02:38 10° ESE
Cosmos 1441 Rocket 3.6 03:54:16 10° NNW 03:58:06 46° W 04:01:57 10° S
Okean O Rocket 3.0 03:55:20 10° NNE 03:59:24 36° E 04:03:28 10° SSE
EO 1 Del DPAF 3.5 03:58:48 10° S 04:02:35 52° W 04:06:25 10° NNW
Cosmos 1758 3.5 03:58:40 10° S 04:02:41 74° E 04:06:42 10° NNE
Lacrosse 5 3.2 04:00:46 10° WNW 04:05:36 41° N 04:10:26 10° E
Cosmos 1805 3.4 04:03:07 10° S 04:07:01 76° E 04:10:57 10° NNE
Cosmos 1953 2.4 04:03:07 10° S 04:07:10 85° E 04:11:16 10° N
NOSS 7 (E) 4.4 04:07:37 13° SW 04:10:35 89° WNW 04:14:12 10° NE
UNK 2.0 04:06:49 10° W 04:10:45 69° SSW 04:12:51 10° ESE
Cosmos-2242 3.0 04:07:18 10° S 04:11:37 85° W 04:15:56 10° N
Cosmos 1656 4.0 04:06:24 12° SW 04:11:38 60° WNW 04:17:15 10° NNE
Cosmos 1408 Rocket 4.2 04:07:59 10° NNW 04:12:00 37° W 04:16:04 10° SSW
Cosmos 2227 4.3 04:08:32 10° NW 04:14:12 57° WSW 04:19:49 10° S
USA 81 4.4 04:09:30 10° S 04:14:45 70° E 04:20:02 10° N
CZ-2D R/B 2.2 04:10:13 10° NNE 04:15:42 73° WNW 04:21:06 10° SSW
Cosmos 1766 Rocket 4.2 04:11:39 10° NNW 04:15:43 37° W 04:19:46 10° SSW
NOSS 2-1 (D) 4.3 04:14:33 10° WSW 04:18:33 48° NW 04:23:26 10° NE
Cosmos 372 Rocket 3.9 04:14:28 10° NNW 04:19:36 79° WSW 04:24:41 10° SSE
Cosmos 2279 Rocket 4.4 04:13:32 10° S 04:19:43 67° E 04:25:56 10° NNE
NOSS 2-1 (C) 4.3 04:15:58 10° WSW 04:19:57 48° NW 04:24:50 10° NE
ADEOS II 4.4 04:19:13 10° NE 04:23:23 23° E 04:27:32 10° SE
Cosmos 1544 3.3 04:19:53 10° S 04:23:31 71° E 04:27:11 10° NNE
Gblst 52 Del rocket 4.3 04:18:11 10° WNW 04:24:34 88° S 04:30:14 10° ESE
Cosmos 1437 3.2 04:22:00 10° NNW 04:25:13 43° W 04:28:24 10° S
MOZ.5/SAFIR/RUBIN 5/SL-8 3.8 04:21:09 10° SSE 04:25:52 86° WSW 04:30:34 10° NNW
MTI 4.4 04:24:09 10° SSW 04:27:13 37° W 04:30:20 10° NNW
MOS 1-B 4.4 04:22:52 10° NNE 04:28:42 75° WNW 04:34:28 10° SSW
In-Cosmos 22 4.5 04:25:03 10° NNW 04:30:02 43° W 04:35:01 10° SSW
Cosmos 1125 Rocket 4.0 04:27:16 10° NW 04:32:07 40° WSW 04:36:55 10° S
SL-16 R/B 3.3 04:28:40 10° SSW 04:34:05 32° W 04:39:34 10° NNW
Cosmos 1655 Rocket 4.2 04:30:35 10° NNW 04:36:55 63° W 04:43:13 10° S
Cosmos 841 Rocket 4.0 04:32:15 10° SW 04:37:23 50° WNW 04:42:33 10° NNE
Cosmos 1674 2.6 04:34:08 10° NNW 04:37:55 69° W 04:41:39 10° S
Cosmos 1697 Rocket 3.2 04:32:38 10° SW 04:38:10 51° NW 04:43:42 10° NNE
RESURS DK-1 2.6 04:34:29 10° NW 04:38:29 46° WSW 04:42:26 10° S
CZ-3 R/B 4.4 04:46:48 10° SW 05:03:20 22° S 05:10:10 10° SE
